Regional Weather Roundup
Issued by NWS

Home | Current Version | Previous Version | Graphics & Text | Print | Product List | Glossary On
Versions: 1 2 3 4 5 6 7 8 9 10 11 12 13 14 15 16 17 18 19 20 21 22 23 24 25 26 27 28 29 30 31 32 33 34 35 36 37 38 39 40 41 42 43 44 45 46 47 48 49 50
000
ASUS43 KIND 291959
RWRIN

WEATHER ROUNDUP FOR INDIANA
NATIONAL WEATHER SERVICE INDIANAPOLIS IN
400 PM EDT FRI AUG 29 2014

NOTE: "FAIR" INDICATES FEW OR NO CLOUDS BELOW 12,000 FEET WITH NO
SIGNIFICANT WEATHER AND/OR OBSTRUCTIONS TO VISIBILITY.

* - STATION DOES NOT REPORT WEATHER SUCH AS PRECIPITATION OR FOG.

+ - STATION NOT QUALITY CONTROLLED BY THE NATIONAL WEATHER SERVICE.
    USE DATA WITH CAUTION...ESPECIALLY DEWPOINT AND RELATIVE
    HUMIDITY OBSERVATIONS.

INZ001>003-010>013-019-020-292100-
NORTHWEST INDIANA

CITY           SKY/WX    TMP DP  RH WIND       PRES   REMARKS
GARY /AIRPORT/ PTSUNNY   84  72  65 SE10      29.94F
KNOX *+        PTSUNNY   76  70  82 SE8       29.97F
MONTICELLO +   SUNNY     83  73  70 S3        29.96F
VALPARAISO     PTSUNNY   81  72  74 S14       29.97F

$$

LMZ046-743>745-292100-
SOUTHERN LAKE MICHIGAN

STATION/POSITION TIME  TEMP WIND        PRES
                       AIR  DIR/SP/G
                 (UTC) (F)  (DEG/KT/KT) (MB)
MICHIGAN CITY    1900   76  130/ 12/ 18   N/A

$$

INZ004-005-014>016-021>024-292100-
NORTH CENTRAL INDIANA

CITY           SKY/WX    TMP DP  RH WIND       PRES   REMARKS
GOSHEN         MOSUNNY   83  69  62 SE12      30.00F
SOUTH BEND     LGT RAIN  77  72  84 S9        29.99F

$$

INZ006>009-017-018-025>027-292100-
NORTHEAST INDIANA

CITY           SKY/WX    TMP DP  RH WIND       PRES   REMARKS
ANGOLA *+      MOSUNNY   84  68  58 S9        30.02F
FORT WAYNE     MOSUNNY   82  69  64 E9        30.02F

$$

INZ028-029-035-036-043>045-051>053-292100-
WEST CENTRAL INDIANA

CITY           SKY/WX    TMP DP  RH WIND       PRES   REMARKS
GREENCASTLE +  RAIN      75  68  78 NW7G32    29.99S
LAFAYETTE      MOSUNNY   85  72  65 S6        29.95F
TERRE HAUTE    SUNNY     89  72  56 S12       29.94F HX  96

$$

INZ030>032-037>040-046>048-054>057-064-065-292100-
CENTRAL INDIANA

CITY           SKY/WX    TMP DP  RH WIND       PRES   REMARKS
ANDERSON       SUNNY     82  66  57 SE12G17   30.02F
FRANKFORT +    SUNNY     85  73  67 SE6       29.99F
INDIANAPOLIS   MOSUNNY   86  70  58 SE13      29.97F
-EAGLE CREEK   SUNNY     85  69  58 SE12      29.98F
KOKOMO *+      MOSUNNY   81  70  69 SE12      29.99F
MT COMFORT *+  SUNNY     84  70  61 SE10      30.00F
SHELBYVILLE    MOSUNNY   86  71  60 SE12      29.99F

$$

INZ033-034-041-042-049-050-058-059-292100-
EAST CENTRAL INDIANA

CITY           SKY/WX    TMP DP  RH WIND       PRES   REMARKS
MUNCIE         SUNNY     82  68  62 SE6       30.01F

$$

INZ060-061-067>069-081>083-085>088-292100-
SOUTHWEST INDIANA

CITY           SKY/WX    TMP DP  RH WIND       PRES   REMARKS
EVANSVILLE     MOSUNNY   89  68  49 S6        29.95F

$$

INZ062-063-066-070>080-084-089>092-292100-
SOUTH CENTRAL AND SOUTHEAST INDIANA

CITY           SKY/WX    TMP DP  RH WIND       PRES   REMARKS
BLOOMINGTON    MOSUNNY   88  72  58 S9        29.97F
SEYMOUR +      MOSUNNY   88  63  42 S8        29.98

$$




USA.gov is the U.S. government's official web portal to all federal, state and local government web resources and services.